Weather History for Milton, FL

Change the Weather History Date:

Saturday, November 5, 2011

  Actual Average (KNSE) Record (KNSE)
Temperature  
Mean Temperature 58 °F -  
Max Temperature 72 °F 71 °F 82 °F (2003)
Min Temperature 46 °F 52 °F 41 °F (2010)
Degree Days  
Heating Degree Days 6    
Growing Degree Days 8 (Base 50)    
Moisture  
Dew Point 38 °F    
Average Humidity 55    
Maximum Humidity 90    
Minimum Humidity 26    
Precipitation  
Precipitation 0.00 in - - ()
Sea Level Pressure  
Sea Level Pressure 30.11 in    
Wind  
Wind Speed 8 mph (ENE)    
Max Wind Speed 15 mph    
Max Gust Speed 23 mph    
Visibility 10 miles    
Events      
Averages and records for this station are not official NWS values.
T = Trace of Precipitation, MM = Missing Value Source: NWS Daily Summary

Daily Weather History Graph

Daily Weather History Graph

Search for Another Location

Airport:

Trip Planner

Search our weather history database for the weather conditions in past years. The results will help you decide how hot, cold, wet, or windy it might be!

Date:

Astronomy

Nov. 05, 2011 Rise Set
Actual Time 7:05 AM CDT 5:57 PM CDT
Civil Twilight 6:40 AM CDT 6:22 PM CDT
Nautical Twilight 6:12 AM CDT 6:50 PM CDT
Astronomical Twilight 5:43 AM CDT 7:19 PM CDT
Moon 2:59 PM CDT (11/5) 2:33 AM CDT (11/5)
Length of Visible Light 11h 41m
Length of Day
10h 51m
Waxing Gibbous, 78% of the Moon is Illuminated
Nov 5
Waxing Gibbous
Nov 10
Full
Nov 18
Last Quarter
Nov 25
New
Dec 2
First Quarter

Hourly Weather History & Observations

Time (CDT) Temp. Windchill Dew Point Humidity Pressure Visibility Wind Dir Wind Speed Gust Speed Precip Events Conditions
12:56 AM 46.9 °F - 44.1 °F 90% 30.07 in 10.0 mi NNW 6.9 mph - N/A   Clear
1:56 AM 46.9 °F - 44.1 °F 90% 30.07 in 10.0 mi NNW 8.1 mph - N/A   Clear
2:56 AM 48.0 °F - 44.1 °F 86% 30.07 in 10.0 mi North 8.1 mph - N/A   Clear
3:56 AM 48.0 °F - 44.1 °F 86% 30.07 in 10.0 mi NNE 8.1 mph - N/A   Clear
4:56 AM 48.0 °F - 44.1 °F 86% 30.08 in 10.0 mi NNE 8.1 mph - N/A   Clear
5:56 AM 46.9 °F - 43.0 °F 86% 30.10 in 10.0 mi NE 6.9 mph - N/A   Clear
6:56 AM 46.0 °F 42.5 °F 43.0 °F 89% 30.12 in 10.0 mi NNE 6.9 mph - N/A   Clear
7:56 AM 48.0 °F - 44.1 °F 86% 30.14 in 10.0 mi NE 6.9 mph - N/A   Clear
9:56 AM 61.0 °F - 44.1 °F 54% 30.15 in 10.0 mi East 15.0 mph 21.9 mph N/A   Clear
10:56 AM 64.9 °F - 37.9 °F 37% 30.16 in 10.0 mi East 12.7 mph - N/A   Clear
11:56 AM 68.0 °F - 32.0 °F 26% 30.14 in 10.0 mi East 11.5 mph 23.0 mph N/A   Clear
12:56 PM 69.1 °F - 35.1 °F 29% 30.12 in 10.0 mi East 11.5 mph - N/A   Clear
1:56 PM 70.0 °F - 36.0 °F 29% 30.10 in 10.0 mi ENE 10.4 mph - N/A   Clear
2:56 PM 71.1 °F - 36.0 °F 28% 30.09 in 10.0 mi ENE 8.1 mph - N/A   Clear
3:56 PM 71.1 °F - 35.1 °F 27% 30.07 in 10.0 mi NE 9.2 mph - N/A   Clear
4:56 PM 69.1 °F - 35.1 °F 29% 30.08 in 10.0 mi ENE 10.4 mph - N/A   Clear
5:56 PM 64.9 °F - 36.0 °F 34% 30.09 in 10.0 mi NE 3.5 mph - N/A   Clear
6:56 PM 61.0 °F - 36.0 °F 39% 30.11 in 10.0 mi East 5.8 mph - N/A   Clear
7:56 PM 55.9 °F - 37.0 °F 49% 30.12 in 10.0 mi ENE 6.9 mph - N/A   Clear
8:56 PM 55.9 °F - 33.1 °F 42% 30.14 in 10.0 mi East 9.2 mph - N/A   Clear
9:56 PM 55.9 °F - 33.1 °F 42% 30.17 in 10.0 mi East 9.2 mph - N/A   Clear
10:56 PM 53.1 °F - 34.0 °F 48% 30.18 in 10.0 mi East 9.2 mph - N/A   Clear
11:56 PM 53.1 °F - 34.0 °F 48% 30.17 in 10.0 mi East 8.1 mph - N/A   Clear